Year,Month,Day,Hour,Minute,Value (Times are PST for temperature in C)
2013,09,21,10,23,15.80
2013,09,21,10,24,15.80
2013,09,21,10,25,15.80
2013,09,21,10,26,15.80
2013,09,21,10,27,15.80
2013,09,21,10,28,15.80
2013,09,21,10,29,15.80
2013,09,21,10,30,15.80
2013,09,21,10,31,15.80
2013,09,21,10,32,15.90
2013,09,21,10,33,15.90
2013,09,21,10,34,16.00
2013,09,21,10,35,16.10
2013,09,21,10,36,16.20
2013,09,21,10,37,16.30
2013,09,21,10,38,16.40
2013,09,21,10,39,16.40
2013,09,21,10,40,16.40
2013,09,21,10,41,16.40
2013,09,21,10,42,16.40
2013,09,21,10,43,16.30
2013,09,21,10,44,16.30
2013,09,21,10,45,16.20
2013,09,21,10,46,16.20
2013,09,21,10,47,16.20
2013,09,21,10,48,16.20
2013,09,21,10,49,16.20
2013,09,21,10,50,16.30
2013,09,21,10,51,16.30
2013,09,21,10,52,16.40
2013,09,21,10,53,16.40
2013,09,21,10,54,16.40
2013,09,21,10,55,16.50
2013,09,21,10,56,16.50
2013,09,21,10,57,16.50
2013,09,21,10,58,16.50
2013,09,21,10,59,16.60
2013,09,21,11,00,16.60
2013,09,21,11,01,16.70
2013,09,21,11,02,16.80
2013,09,21,11,03,16.90
2013,09,21,11,04,16.90
2013,09,21,11,05,16.90
2013,09,21,11,06,16.80
2013,09,21,11,07,16.80
2013,09,21,11,08,16.80
2013,09,21,11,09,16.70
2013,09,21,11,10,16.70
2013,09,21,11,11,16.70
2013,09,21,11,12,16.70
2013,09,21,11,13,16.70
2013,09,21,11,14,16.70
2013,09,21,11,15,16.80
2013,09,21,11,16,16.80
2013,09,21,11,17,16.90
2013,09,21,11,18,16.90
2013,09,21,11,19,17.00
2013,09,21,11,20,17.10
2013,09,21,11,21,17.20
2013,09,21,11,22,17.30
2013,09,21,11,23,17.30
2013,09,21,11,24,17.30
2013,09,21,11,25,17.30
2013,09,21,11,26,17.30
2013,09,21,11,27,17.40
2013,09,21,11,28,17.40
2013,09,21,11,29,17.40
2013,09,21,11,30,17.40
2013,09,21,11,31,17.30
2013,09,21,11,32,17.10
2013,09,21,11,33,17.00
2013,09,21,11,34,16.90
2013,09,21,11,35,16.80
2013,09,21,11,36,16.80
2013,09,21,11,37,16.80
2013,09,21,11,38,16.70
2013,09,21,11,39,16.70
2013,09,21,11,40,16.60
2013,09,21,11,41,16.70
2013,09,21,11,42,16.60
2013,09,21,11,43,16.60
2013,09,21,11,44,16.60
2013,09,21,11,45,16.50
2013,09,21,11,46,16.50
2013,09,21,11,47,16.40
2013,09,21,11,48,16.40
2013,09,21,11,49,16.40
2013,09,21,11,50,16.40
2013,09,21,11,51,16.30
2013,09,21,11,52,16.30
2013,09,21,11,53,16.20
2013,09,21,11,54,16.20
2013,09,21,11,55,16.10
2013,09,21,11,56,16.10
2013,09,21,11,57,16.00
2013,09,21,11,58,16.00
2013,09,21,11,59,16.00
2013,09,21,12,00,16.00
2013,09,21,12,01,16.00
2013,09,21,12,02,15.90
2013,09,21,12,03,15.90
2013,09,21,12,04,15.90
2013,09,21,12,05,15.90
2013,09,21,12,06,15.90
2013,09,21,12,07,15.80
2013,09,21,12,08,15.70
2013,09,21,12,09,15.60
2013,09,21,12,10,15.50
2013,09,21,12,11,15.50
2013,09,21,12,12,15.40
2013,09,21,12,13,15.40
2013,09,21,12,14,15.40
2013,09,21,12,15,15.30
2013,09,21,12,16,15.30
2013,09,21,12,17,15.30
2013,09,21,12,18,15.30
2013,09,21,12,19,15.30
2013,09,21,12,20,15.30
2013,09,21,12,21,15.20
2013,09,21,12,22,15.20
2013,09,21,12,23,15.20
2013,09,21,12,24,15.20
2013,09,21,12,25,15.20
2013,09,21,12,26,15.20
2013,09,21,12,27,15.20
2013,09,21,12,28,15.20
2013,09,21,12,29,15.30
2013,09,21,12,30,15.20
2013,09,21,12,31,15.20
2013,09,21,12,32,15.20
2013,09,21,12,33,15.20
2013,09,21,12,34,15.20
2013,09,21,12,35,15.20
2013,09,21,12,36,15.30
2013,09,21,12,37,15.30
2013,09,21,12,38,15.40
2013,09,21,12,39,15.40
2013,09,21,12,40,15.50
2013,09,21,12,41,15.60
2013,09,21,12,42,15.60
2013,09,21,12,43,15.70
2013,09,21,12,44,15.90
2013,09,21,12,45,16.00
2013,09,21,12,46,16.10
2013,09,21,12,47,16.20
2013,09,21,12,48,16.30
2013,09,21,12,49,16.40
2013,09,21,12,50,16.50
2013,09,21,12,51,16.50
2013,09,21,12,52,16.60
2013,09,21,12,53,16.60
2013,09,21,12,54,16.60
2013,09,21,12,55,16.50
2013,09,21,12,56,16.50
2013,09,21,12,57,16.50
2013,09,21,12,58,16.40
2013,09,21,12,59,16.30
2013,09,21,13,00,16.30
2013,09,21,13,01,16.30
2013,09,21,13,02,16.30
2013,09,21,13,03,16.30
2013,09,21,13,04,16.30
2013,09,21,13,05,16.30
2013,09,21,13,06,16.40
2013,09,21,13,07,16.50
2013,09,21,13,08,16.60
2013,09,21,13,09,16.70
2013,09,21,13,10,16.70
2013,09,21,13,11,16.70
2013,09,21,13,12,16.70
2013,09,21,13,13,16.70
2013,09,21,13,14,16.70
2013,09,21,13,15,16.70
2013,09,21,13,16,16.70
2013,09,21,13,17,16.70
2013,09,21,13,18,16.70
2013,09,21,13,19,16.70
2013,09,21,13,20,16.60
2013,09,21,13,21,16.60
2013,09,21,13,22,16.50
2013,09,21,13,23,16.40
2013,09,21,13,24,16.40
2013,09,21,13,25,16.40
2013,09,21,13,26,16.40
2013,09,21,13,27,16.40
2013,09,21,13,28,16.50
2013,09,21,13,29,16.50
2013,09,21,13,30,16.50
2013,09,21,13,31,16.50
2013,09,21,13,32,16.60
2013,09,21,13,33,16.60
2013,09,21,13,34,16.60
2013,09,21,13,35,16.60
2013,09,21,13,36,16.70
2013,09,21,13,37,16.70
2013,09,21,13,38,16.70
2013,09,21,13,39,16.70
2013,09,21,13,40,16.70
2013,09,21,13,41,16.70
2013,09,21,13,42,16.80
2013,09,21,13,43,16.80
2013,09,21,13,44,16.80
2013,09,21,13,45,16.90
2013,09,21,13,46,16.90
2013,09,21,13,47,16.90
2013,09,21,13,48,16.90
2013,09,21,13,49,16.90
2013,09,21,13,50,16.80
2013,09,21,13,51,16.70
2013,09,21,13,52,16.60
2013,09,21,13,53,16.60
2013,09,21,13,54,16.50
2013,09,21,13,55,16.50
2013,09,21,13,56,16.50
2013,09,21,13,57,16.50
2013,09,21,13,58,16.40
2013,09,21,13,59,16.40
2013,09,21,14,00,16.30
2013,09,21,14,01,16.20
2013,09,21,14,02,16.20
2013,09,21,14,03,16.10
2013,09,21,14,04,16.10
2013,09,21,14,05,16.10
2013,09,21,14,06,16.10
2013,09,21,14,07,16.00
2013,09,21,14,08,15.90
2013,09,21,14,09,15.90
2013,09,21,14,10,15.90
2013,09,21,14,11,15.80
2013,09,21,14,12,15.70
2013,09,21,14,13,15.60
2013,09,21,14,14,15.50
2013,09,21,14,15,15.40
2013,09,21,14,16,15.30
2013,09,21,14,17,15.30
2013,09,21,14,18,15.30
2013,09,21,14,19,15.20
2013,09,21,14,20,15.00
2013,09,21,14,21,15.00
2013,09,21,14,22,15.00
2013,09,21,14,23,15.00
2013,09,21,14,24,15.00
2013,09,21,14,25,14.90
2013,09,21,14,26,14.80
2013,09,21,14,27,14.80
2013,09,21,14,28,14.80
2013,09,21,14,29,14.70
2013,09,21,14,30,14.70
2013,09,21,14,31,14.70
2013,09,21,14,32,14.70
2013,09,21,14,33,14.70
2013,09,21,14,34,14.70
2013,09,21,14,35,14.70
2013,09,21,14,36,14.70
2013,09,21,14,37,14.80
2013,09,21,14,38,14.80
2013,09,21,14,39,14.80
2013,09,21,14,40,14.80
2013,09,21,14,41,14.80
2013,09,21,14,42,14.80
2013,09,21,14,43,14.70
2013,09,21,14,44,14.70
2013,09,21,14,45,14.70
2013,09,21,14,46,14.70
2013,09,21,14,47,14.70
2013,09,21,14,48,14.70
2013,09,21,14,49,14.70
2013,09,21,14,50,14.70
2013,09,21,14,51,14.70
2013,09,21,14,52,14.70
2013,09,21,14,53,14.80
2013,09,21,14,54,14.80
2013,09,21,14,55,15.00
2013,09,21,14,56,15.00
2013,09,21,14,57,15.00
2013,09,21,14,58,15.00
2013,09,21,14,59,15.00
2013,09,21,15,00,15.00
2013,09,21,15,01,15.00
2013,09,21,15,02,15.00
2013,09,21,15,03,15.00
2013,09,21,15,04,15.00
2013,09,21,15,05,15.00
2013,09,21,15,06,15.00
2013,09,21,15,07,15.00
2013,09,21,15,08,15.00
2013,09,21,15,09,15.00
2013,09,21,15,10,15.00
2013,09,21,15,11,15.00
2013,09,21,15,12,15.00
2013,09,21,15,13,15.00
2013,09,21,15,14,15.00
2013,09,21,15,15,15.00
2013,09,21,15,16,15.00
2013,09,21,15,17,15.00
2013,09,21,15,18,15.00
2013,09,21,15,19,15.00
2013,09,21,15,20,15.00
2013,09,21,15,21,15.10
2013,09,21,15,22,15.20
2013,09,21,15,23,15.20
2013,09,21,15,24,15.20
2013,09,21,15,25,15.20
2013,09,21,15,26,15.30
2013,09,21,15,27,15.40
2013,09,21,15,28,15.40
2013,09,21,15,29,15.40
2013,09,21,15,30,15.50
2013,09,21,15,31,15.50
2013,09,21,15,32,15.50
2013,09,21,15,33,15.50
2013,09,21,15,34,15.60
2013,09,21,15,35,15.50
2013,09,21,15,36,15.50
2013,09,21,15,37,15.50
2013,09,21,15,38,15.60
2013,09,21,15,39,15.70
2013,09,21,15,40,15.80
2013,09,21,15,41,15.90
2013,09,21,15,42,15.90
2013,09,21,15,43,15.90
2013,09,21,15,44,15.90
2013,09,21,15,45,15.90
2013,09,21,15,46,15.90
2013,09,21,15,47,15.90
2013,09,21,15,48,15.90
2013,09,21,15,49,15.90
2013,09,21,15,50,15.80
2013,09,21,15,51,15.80
2013,09,21,15,52,15.80
2013,09,21,15,53,15.80
2013,09,21,15,54,15.70
2013,09,21,15,55,15.60
2013,09,21,15,56,15.60
2013,09,21,15,57,15.60
2013,09,21,15,58,15.60
2013,09,21,15,59,15.60
2013,09,21,16,00,15.70
2013,09,21,16,01,15.70
2013,09,21,16,02,15.70
2013,09,21,16,03,15.70
2013,09,21,16,04,15.70
2013,09,21,16,05,15.70
2013,09,21,16,06,15.70
2013,09,21,16,07,15.70
2013,09,21,16,08,15.70
2013,09,21,16,09,15.70
2013,09,21,16,10,15.70
2013,09,21,16,11,15.70
2013,09,21,16,12,15.70
2013,09,21,16,13,15.70
2013,09,21,16,14,15.70
2013,09,21,16,15,15.70
2013,09,21,16,16,15.80
2013,09,21,16,17,15.80
2013,09,21,16,18,15.90
2013,09,21,16,19,15.90
2013,09,21,16,20,16.00
2013,09,21,16,21,16.00
2013,09,21,16,22,16.10
2013,09,21,16,23,16.20
2013,09,21,16,24,16.30
2013,09,21,16,25,16.40
2013,09,21,16,26,16.50
2013,09,21,16,27,16.60
2013,09,21,16,28,16.70
2013,09,21,16,29,16.80
2013,09,21,16,30,16.90
2013,09,21,16,31,16.90
2013,09,21,16,32,16.90
2013,09,21,16,33,16.90
2013,09,21,16,34,16.90
2013,09,21,16,35,16.90
2013,09,21,16,36,16.90
2013,09,21,16,37,16.80
2013,09,21,16,38,16.80
2013,09,21,16,39,16.80
2013,09,21,16,40,16.80
2013,09,21,16,41,16.80
2013,09,21,16,42,16.70
2013,09,21,16,43,16.70
2013,09,21,16,44,16.70
2013,09,21,16,45,16.60
2013,09,21,16,46,16.60
2013,09,21,16,47,16.50
2013,09,21,16,48,16.50
2013,09,21,16,49,16.40
2013,09,21,16,50,16.40
2013,09,21,16,51,16.40
2013,09,21,16,52,16.30
2013,09,21,16,53,16.30
2013,09,21,16,54,16.30
2013,09,21,16,55,16.30
2013,09,21,16,56,16.20
2013,09,21,16,57,16.20
2013,09,21,16,58,16.20
2013,09,21,16,59,16.20
2013,09,21,17,00,16.20
2013,09,21,17,01,16.10
2013,09,21,17,02,16.10
2013,09,21,17,03,16.10
2013,09,21,17,04,16.10
2013,09,21,17,05,16.10
2013,09,21,17,06,16.10
2013,09,21,17,07,16.10
2013,09,21,17,08,16.10
2013,09,21,17,09,16.10
2013,09,21,17,10,16.10
2013,09,21,17,11,16.10
2013,09,21,17,12,16.10
2013,09,21,17,13,16.10
2013,09,21,17,14,16.20
2013,09,21,17,15,16.20
2013,09,21,17,16,16.20
2013,09,21,17,17,16.20
2013,09,21,17,18,16.20
2013,09,21,17,19,16.30
2013,09,21,17,20,16.30
2013,09,21,17,21,16.30
2013,09,21,17,22,16.30
2013,09,21,17,23,16.30
2013,09,21,17,24,16.30
2013,09,21,17,25,16.30
2013,09,21,17,26,16.30
2013,09,21,17,27,16.30
2013,09,21,17,28,16.30
2013,09,21,17,29,16.30
2013,09,21,17,30,16.30
2013,09,21,17,31,16.30
2013,09,21,17,32,16.30
2013,09,21,17,33,16.30
2013,09,21,17,34,16.30
2013,09,21,17,35,16.30
2013,09,21,17,36,16.30
2013,09,21,17,37,16.30
2013,09,21,17,54,16.20
2013,09,21,17,55,16.20
2013,09,21,17,56,16.20
2013,09,21,17,57,16.20
2013,09,21,17,58,16.30
2013,09,21,17,59,16.30
2013,09,21,18,00,16.30
2013,09,21,18,01,16.30
2013,09,21,18,02,16.30
2013,09,21,18,03,16.40
2013,09,21,18,04,16.40
2013,09,21,18,05,16.50
2013,09,21,18,06,16.50
2013,09,21,18,07,16.60
2013,09,21,18,08,16.60
2013,09,21,18,09,16.60
2013,09,21,18,10,16.60
2013,09,21,18,11,16.60
2013,09,21,18,12,16.50
2013,09,21,18,13,16.50
2013,09,21,18,14,16.50
2013,09,21,18,15,16.50
2013,09,21,18,16,16.50
2013,09,21,18,17,16.50
2013,09,21,18,18,16.50
2013,09,21,18,19,16.50
2013,09,21,18,20,16.50
2013,09,21,18,21,16.50
2013,09,21,18,22,16.50
2013,09,21,18,23,16.50
2013,09,21,18,24,16.50
2013,09,21,18,25,16.50
